• In Germany
  • List of Countries
  • For 7 days
  • Water Temperature
  • Satellite Maps
  • Weather Map
  • Weather Widgets
  • user-avatar
    Login

    Hourly Weather Orange Walk

    Today, 25 September, Monday

    Time Temperature Precipitation Wind Pressure Humidity
    00:00 +27°C° 0 mm 1 mps 754 mmHg 94%
    01:00 +27°C° 0 mm 1 mps 753 mmHg 94%
    02:00 +26°C° 0 mm 1 mps 753 mmHg 95%
    03:00 +26°C° 0 mm 1 mps 753 mmHg 95%
    04:00 +26°C° 0.3 mm 1 mps 753 mmHg 95%
    05:00 +26°C° 0.3 mm 1 mps 753 mmHg 96%
    06:00 +26°C° 0.3 mm 1 mps 753 mmHg 96%
    07:00 +28°C° 0.3 mm 1 mps 753 mmHg 88%
    08:00 +30°C° 0.3 mm 2 mps 753 mmHg 80%
    09:00 +32°C° 0.3 mm 2 mps 754 mmHg 72%
    10:00 +32°C° 0.8 mm 2 mps 753 mmHg 72%
    11:00 +34°C° 0.8 mm 2 mps 753 mmHg 71%
    12:00 +34°C° 0.8 mm 2 mps 753 mmHg 70%
    13:00 +34°C° 0.6 mm 2 mps 752 mmHg 69%
    14:00 +34°C° 0.6 mm 2 mps 752 mmHg 68%
    15:00 +34°C° 0.6 mm 3 mps 751 mmHg 67%
    16:00 +32°C° 0.5 mm 2 mps 751 mmHg 73%
    17:00 +30°C° 0.5 mm 2 mps 751 mmHg 80%
    18:00 +29°C° 0.5 mm 2 mps 752 mmHg 86%
    19:00 +28°C° 0.2 mm 2 mps 752 mmHg 89%
    20:00 +28°C° 0.2 mm 2 mps 752 mmHg 91%
    21:00 +27°C° 0.2 mm 2 mps 753 mmHg 94%
    22:00 +27°C° 0.9 mm 2 mps 753 mmHg 95%
    23:00 +27°C° 0.9 mm 2 mps 753 mmHg 96%

    Tomorrow, 26 September, Tuesday

    Time Temperature Precipitation Wind Pressure Humidity
    00:00 +26°C° 0.9 mm 2 mps 752 mmHg 97%
    01:00 +26°C° 0.5 mm 1 mps 752 mmHg 97%
    02:00 +26°C° 0.5 mm 1 mps 752 mmHg 97%
    03:00 +26°C° 0.5 mm 1 mps 752 mmHg 97%
    04:00 +26°C° 1.1 mm 1 mps 752 mmHg 97%
    05:00 +26°C° 1.1 mm 2 mps 752 mmHg 97%
    06:00 +26°C° 1.1 mm 2 mps 752 mmHg 97%
    07:00 +27°C° 0.9 mm 2 mps 753 mmHg 95%
    08:00 +28°C° 0.9 mm 2 mps 753 mmHg 94%
    09:00 +29°C° 0.9 mm 2 mps 754 mmHg 92%
    10:00 +30°C° 1.2 mm 2 mps 754 mmHg 88%
    11:00 +30°C° 1.2 mm 2 mps 754 mmHg 85%
    12:00 +31°C° 1.2 mm 2 mps 753 mmHg 81%
    13:00 +32°C° 0.3 mm 2 mps 753 mmHg 76%
    14:00 +32°C° 0.3 mm 2 mps 752 mmHg 71%
    15:00 +34°C° 0.3 mm 2 mps 751 mmHg 66%
    16:00 +32°C° 0.2 mm 2 mps 751 mmHg 73%
    17:00 +30°C° 0.2 mm 2 mps 752 mmHg 80%
    18:00 +29°C° 0.2 mm 2 mps 752 mmHg 88%
    19:00 +28°C° 1 mm 2 mps 752 mmHg 91%
    20:00 +28°C° 1 mm 2 mps 753 mmHg 94%
    21:00 +28°C° 1 mm 2 mps 753 mmHg 97%
    22:00 +28°C° 1.2 mm 2 mps 753 mmHg 97%
    23:00 +27°C° 1.2 mm 2 mps 753 mmHg 97%

    Day after tomorrow, 27 September, Wednesday

    Time Temperature Precipitation Wind Pressure Humidity
    00:00 +27°C° 1.2 mm 2 mps 753 mmHg 98%
    01:00 +27°C° 1.3 mm 1 mps 752 mmHg 97%
    02:00 +27°C° 1.3 mm 1 mps 752 mmHg 97%
    03:00 +27°C° 1.3 mm 1 mps 752 mmHg 97%
    04:00 +27°C° 1.1 mm 1 mps 752 mmHg 97%
    05:00 +27°C° 1.1 mm 1 mps 752 mmHg 98%
    06:00 +27°C° 1.1 mm 1 mps 752 mmHg 98%
    07:00 +28°C° 0.7 mm 1 mps 753 mmHg 96%
    08:00 +29°C° 0.7 mm 1 mps 753 mmHg 94%
    09:00 +30°C° 0.7 mm 1 mps 754 mmHg 93%
    10:00 +30°C° 0.4 mm 1 mps 754 mmHg 88%
    11:00 +31°C° 0.4 mm 1 mps 753 mmHg 83%
    12:00 +32°C° 0.4 mm 1 mps 753 mmHg 79%
    13:00 +33°C° 0.2 mm 1 mps 752 mmHg 74%
    14:00 +33°C° 0.2 mm 1 mps 752 mmHg 70%
    15:00 +34°C° 0.2 mm 1 mps 751 mmHg 66%
    16:00 +32°C° 0.1 mm 1 mps 752 mmHg 72%
    17:00 +31°C° 0.1 mm 1 mps 752 mmHg 79%
    18:00 +30°C° 0.1 mm 1 mps 752 mmHg 85%
    19:00 +29°C° 1.1 mm 2 mps 753 mmHg 89%
    20:00 +28°C° 1.1 mm 2 mps 753 mmHg 93%
    21:00 +28°C° 1.1 mm 2 mps 754 mmHg 98%
    22:00 +28°C° 1.2 mm 2 mps 754 mmHg 98%
    23:00 +27°C° 1.2 mm 2 mps 754 mmHg 98%

    28 September, Thursday

    Time Temperature Precipitation Wind Pressure Humidity
    00:00 +27°C° 1.2 mm 2 mps 753 mmHg 98%
    01:00 +27°C° 0.2 mm 1 mps 753 mmHg 98%
    02:00 +27°C° 0.2 mm 1 mps 753 mmHg 98%
    03:00 +27°C° 0.2 mm 1 mps 752 mmHg 98%
    04:00 +27°C° 0.2 mm 1 mps 753 mmHg 98%
    05:00 +27°C° 0.2 mm 1 mps 753 mmHg 98%
    06:00 +27°C° 0.2 mm 1 mps 753 mmHg 98%
    07:00 +28°C° 0.4 mm 1 mps 754 mmHg 95%
    08:00 +29°C° 0.4 mm 1 mps 754 mmHg 92%
    09:00 +30°C° 0.4 mm 1 mps 755 mmHg 88%
    10:00 +31°C° 0.6 mm 1 mps 754 mmHg 85%
    11:00 +31°C° 0.6 mm 2 mps 754 mmHg 81%
    12:00 +32°C° 0.6 mm 2 mps 753 mmHg 78%
    13:00 +32°C° 0.3 mm 2 mps 753 mmHg 77%
    14:00 +32°C° 0.3 mm 2 mps 752 mmHg 76%
    15:00 +32°C° 0.3 mm 2 mps 752 mmHg 75%
    16:00 +31°C° 0 mm 2 mps 752 mmHg 80%
    17:00 +30°C° 0 mm 2 mps 753 mmHg 85%
    18:00 +29°C° 0 mm 2 mps 753 mmHg 89%
    19:00 +29°C° 0 mm 2 mps 754 mmHg 91%
    20:00 +28°C° 0 mm 2 mps 754 mmHg 92%
    21:00 +28°C° 0 mm 2 mps 755 mmHg 94%
    22:00 +28°C° 0.2 mm 2 mps 754 mmHg 95%
    23:00 +27°C° 0.2 mm 1 mps 754 mmHg 95%

    29 September, Friday

    Time Temperature Precipitation Wind Pressure Humidity
    00:00 +27°C° 0.2 mm 1 mps 754 mmHg 96%
    01:00 +27°C° 0.2 mm 1 mps 754 mmHg 96%
    02:00 +27°C° 0.2 mm 1 mps 753 mmHg 97%
    03:00 +27°C° 0.2 mm 1 mps 753 mmHg 97%
    04:00 +27°C° 0.3 mm 1 mps 753 mmHg 97%
    05:00 +27°C° 0.3 mm 1 mps 754 mmHg 97%
    06:00 +27°C° 0.3 mm 1 mps 754 mmHg 97%
    07:00 +28°C° 0.3 mm 1 mps 755 mmHg 92%
    08:00 +29°C° 0.3 mm 1 mps 755 mmHg 87%
    09:00 +31°C° 0.3 mm 1 mps 755 mmHg 82%
    10:00 +32°C° 0 mm 1 mps 755 mmHg 76%
    11:00 +32°C° 0 mm 1 mps 754 mmHg 70%
    12:00 +34°C° 0 mm 2 mps 754 mmHg 64%
    13:00 +34°C° 0 mm 2 mps 753 mmHg 65%
    14:00 +34°C° 0 mm 2 mps 753 mmHg 66%
    15:00 +34°C° 0 mm 2 mps 752 mmHg 66%
    16:00 +32°C° 0 mm 2 mps 753 mmHg 73%
    17:00 +31°C° 0 mm 2 mps 753 mmHg 80%
    18:00 +29°C° 0 mm 2 mps 754 mmHg 86%
    19:00 +29°C° 0.1 mm 2 mps 754 mmHg 88%
    20:00 +29°C° 0.1 mm 2 mps 754 mmHg 90%
    21:00 +28°C° 0.1 mm 2 mps 755 mmHg 91%
    22:00 +28°C° 0.1 mm 2 mps 754 mmHg 93%
    23:00 +28°C° 0.1 mm 2 mps 754 mmHg 94%

    30 September, Saturday

    Time Temperature Precipitation Wind Pressure Humidity
    00:00 +28°C° 0.1 mm 2 mps 754 mmHg 96%
    01:00 +27°C° 0.5 mm 2 mps 754 mmHg 96%
    02:00 +27°C° 0.5 mm 2 mps 754 mmHg 96%
    03:00 +27°C° 0.5 mm 2 mps 753 mmHg 97%
    04:00 +27°C° 0.7 mm 2 mps 754 mmHg 97%
    05:00 +27°C° 0.7 mm 2 mps 754 mmHg 97%
    06:00 +27°C° 0.7 mm 2 mps 754 mmHg 97%
    07:00 +28°C° 1.5 mm 2 mps 755 mmHg 96%
    08:00 +29°C° 1.5 mm 2 mps 755 mmHg 94%
    09:00 +29°C° 1.5 mm 2 mps 755 mmHg 92%
    10:00 +29°C° 0.7 mm 2 mps 755 mmHg 92%
    11:00 +30°C° 0.7 mm 2 mps 755 mmHg 91%
    12:00 +30°C° 0.7 mm 2 mps 754 mmHg 90%
    13:00 +30°C° 0.4 mm 2 mps 754 mmHg 90%
    14:00 +30°C° 0.4 mm 2 mps 753 mmHg 89%
    15:00 +30°C° 0.4 mm 2 mps 753 mmHg 88%
    16:00 +29°C° 0.2 mm 2 mps 753 mmHg 91%
    17:00 +29°C° 0.2 mm 2 mps 754 mmHg 93%
    18:00 +28°C° 0.2 mm 2 mps 754 mmHg 96%
    19:00 +28°C° 0 mm 2 mps 754 mmHg 97%
    20:00 +27°C° 0 mm 2 mps 754 mmHg 97%
    21:00 +27°C° 0 mm 2 mps 755 mmHg 98%
    22:00 +27°C° 0.4 mm 2 mps 754 mmHg 98%
    23:00 +27°C° 0.4 mm 1 mps 754 mmHg 98%
    Show more